Find OneWeb SL0546

NORAD ID: 56048 Int'l Des: 2023-043 Owner: ONEWEBN Country: UK Constellation: oneweb operational
別名: ONEWEB-0546 spacetrack, celestrak
LEOCIRCULARPOLARONEWEB_TYPE

現在のビュー

3D地球を読み込み中...

About OneWeb SL0546

OneWeb SL0546 (NORAD 56048) is a oneweb constellation satellite launched Mar 26, 2023 by ONEWEBN of UK. It operates in LEO, CIRCULAR, POLAR, ONEWEB_TYPE orbit with a mass of 148.00 kg.

次回通過

Passes for default location (London). Set your location on the main map for personalized predictions.

高度履歴

Loading altitude history...

軌道要素

1 56048U 23043C 26265.60369427 .00000106 00000-0 24470-3 0 9990
2 56048 87.9159 209.4347 0001864 97.3242 262.8101 13.16595576171781
Epoch: Sep 22, 2026 • Age: 17 hours

現在のステータス

高度 1200.3 km
遠地点 / 近地点 N/A
速度 7.26 km/s
衛星直下点 27.02°N, 89.11°W
打ち上げ日 Mar 26, 2023
運用期間 3.4 years
タイプ internet

技術仕様

分類 Payload
質量 148.00 kg
乾燥質量 140.00 kg
長さ 1.30 m
直径 1.00 m
スパン 5.00 m
形状 ? Trapezoid+2 pan
製造者 ONEWUS
バスタイプ ARROW
フェーズステータス In Orbit
所有者/国 ONEWEBN/UK

Most Searched